[[{"header":{"parameterUnit":"m.s-1","parameterCategory":1,"la1":30.2991,"la2":30.254,"lo1":-89.0895,"lo2":-89.0444,"dy":0.0017,"dx":0.0017,"nx":28,"ny":28,"refTime":"2024-05-29T03:00:00:Z","depth":0,"parameterNumber":2,"parameterNumberName":"U-component_of_WINDS"},"data":[0,0,0,0,0,0,0,0,0,0,0,0,0,0,0,0,0,0,0,0,0,0,0,0,0,0,0,0,0,0,0,0,0,0,0,0,0,0,0,0,0,0,0,0,0,0,0,0,0,0,0,0,0,0,0,0,0,0,-3.2183,-3.2184,0,-3.2257,-3.2258,-3.2259,-3.225,-3.2249,-3.2247,-3.2246,-3.232,-3.2323,-3.2326,0,0,0,0,0,0,0,0,0,0,0,0,0,-3.2033,-3.2036,-3.2183,-3.2184,-3.2185,-3.2257,-3.2258,-3.2259,-3.225,-3.2249,-3.2247,-3.2246,-3.2319,-3.2323,-3.2326,0,0,0,0,0,0,0,0,0,0,0,0,0,-3.2101,-3.2036,-3.2183,-3.2189,-3.219,-3.2257,-3.2258,-3.2259,-3.225,-3.2249,-3.2247,-3.2245,-3.2318,-3.2322,-3.2327,-3.2391,0,0,-3.2341,-3.2343,0,0,0,0,0,0,0,0,-3.2098,-3.2107,-3.2187,-3.2189,-3.219,-3.2242,-3.2232,-3.2303,-3.2251,-3.2228,-3.2246,-3.2244,-3.2296,-3.2302,-3.232,-3.2395,-3.2398,-3.2341,-3.2344,-3.2346,-3.2348,0,0,0,0,0,0,0,-3.2093,-3.2104,-3.2212,-3.2188,-3.219,-3.2188,-3.2196,-3.2246,-3.2271,-3.2229,-3.2229,-3.2238,-3.2296,-3.2315,-3.2321,-3.2399,-3.2341,-3.2345,-3.2348,-3.235,-3.253,-3.2532,0,0,0,0,0,0,-3.2087,-3.21,-3.221,-3.2214,-3.2139,-3.2192,-3.2201,-3.2228,-3.227,-3.2275,-3.2239,-3.2237,-3.2308,-3.2316,-3.2324,-3.2401,-3.2346,-3.2351,-3.2353,-3.2528,-3.2531,-3.2533,0,0,0,0,0,0,-3.2083,-3.2097,-3.2207,-3.2157,-3.2171,-3.2197,-3.2227,-3.223,-3.2249,-3.2278,-3.2282,-3.2254,-3.2307,-3.2317,-3.2375,-3.2404,-3.2353,-3.2357,-3.2526,-3.2529,-3.2532,-3.2557,0,0,0,0,0,0,-3.2079,-3.2095,-3.212,-3.2158,-3.2174,-3.2257,-3.2228,-3.2233,-3.2257,-3.2255,-3.2293,-3.2297,-3.2307,-3.2368,-3.2379,-3.2409,-3.236,-3.2523,-3.2527,-3.2531,-3.2554,-3.2561,-3.2567,0,0,0,0,0,-3.2074,-3.2124,-3.2121,-3.2135,-3.2205,-3.2258,-3.2267,-3.2278,-3.226,-3.2284,-3.2303,-3.2296,-3.2399,-3.2374,-3.2387,-3.2418,-3.2522,-3.2526,-3.2531,-3.2551,-3.2559,-3.2566,0,0,0,0,0,0,-3.2088,-3.2129,-3.2127,-3.219,-3.2221,-3.2257,-3.2288,-3.2286,-3.2322,-3.2318,-3.2329,-3.2338,-3.2395,-3.2413,-3.2384,-3.2483,-3.2458,-3.2465,-3.2469,-3.2477,-3.2484,-3.2477,-3.2364,0,0,0,0,0,-3.2099,-3.2139,-3.2172,-3.2225,-3.2241,-3.2262,-3.2286,-3.2291,-3.2323,-3.2336,-3.2358,-3.2389,-3.2429,-3.2454,-3.2492,-3.2557,-3.2565,-3.2586,-3.2592,-3.2597,-3.2603,-3.2638,-3.2648,-3.2548,-3.2548,-3.2548,0,0,-3.2121,-3.2148,-3.2173,-3.2229,-3.2253,-3.2294,-3.2273,-3.2317,-3.2348,-3.2342,-3.2397,-3.2416,-3.2451,-3.2512,-3.254,-3.2529,-3.2632,-3.2603,-3.2607,-3.261,-3.2644,-3.2653,-3.2662,-3.2551,-3.2551,-3.255,0,0,-3.2182,-3.2207,-3.2254,-3.2279,-3.2317,-3.2331,-3.2342,-3.2379,-3.2391,-3.2447,-3.2444,-3.248,-3.2548,-3.2573,-3.2595,-3.2668,-3.2662,-3.268,-3.2712,-3.2747,-3.2755,-3.2762,-3.2787,-3.2796,-3.2686,-3.2686,-3.2686,0,-3.2204,-3.2266,-3.2278,-3.2323,-3.2347,-3.2346,-3.2393,-3.2417,-3.2465,-3.2482,-3.2469,-3.2554,-3.2578,-3.2645,-3.2663,-3.2681,-3.2694,-3.2674,-3.2753,-3.276,-3.2766,-3.279,-3.28,-3.2687,-3.2687,-3.2687,-3.2687,0,-3.2291,-3.2334,-3.2368,-3.2415,-3.2444,-3.249,-3.2508,-3.2536,-3.2539,-3.2555,-3.2612,-3.2641,-3.2685,-3.2702,-3.2705,-3.277,-3.2761,-3.275,-3.2725,-3.2777,-3.28,-3.2809,-3.269,-3.2689,-3.2689,-3.2688,0,0,-3.2361,-3.2415,-3.2427,-3.2449,-3.2491,-3.2524,-3.2571,-3.2614,-3.2638,-3.2671,-3.271,-3.2768,-3.2759,-3.2783,-3.279,-3.2821,-3.2876,-3.2806,-3.2807,-3.2817,-3.2948,-3.2955,-3.2965,-3.2874,-3.2875,-3.2877,-3.2945,0,-3.2425,-3.2507,-3.2519,-3.2591,-3.2631,-3.2631,-3.2671,-3.2702,-3.2718,-3.2754,-3.2772,-3.2813,-3.2798,-3.2813,-3.2843,-3.2863,-3.2902,-3.2858,-3.2908,-3.291,-3.2898,-3.2977,-3.2984,-3.3047,-3.2954,-3.2955,-3.2956,0,-3.251,-3.2547,-3.2623,-3.266,-3.2677,-3.2713,-3.2755,-3.279,-3.2824,-3.2834,-3.2862,-3.2866,-3.2913,-3.2888,-3.2954,-3.2924,-3.2945,-3.2958,-3.2961,-3.2964,-3.2935,-3.2981,-3.3067,-3.3076,-3.2971,-3.2969,-3.2968,0,-3.2552,-3.262,-3.2675,-3.2693,-3.2739,-3.2764,-3.2784,-3.2817,-3.2843,-3.2879,-3.2896,-3.2937,-3.2959,-3.2991,-3.3006,-3.2986,-3.307,-3.3046,-3.3079,-3.3079,-3.3095,-3.3093,-3.3183,-3.3112,-3.3112,-3.3111,-3.3111,0,-3.2621,-3.2667,-3.2694,-3.2727,-3.2779,-3.2794,-3.2845,-3.2864,-3.2894,-3.293,-3.2934,-3.2968,-3.2986,-3.3023,-3.3035,-3.3087,-3.3098,-3.3106,-3.3109,-3.3105,-3.3104,-3.3118,-3.3114,-3.3114,-3.3113,-3.3113,-3.3112,0,-3.2675,-3.2696,-3.2755,-3.2793,-3.2804,-3.2841,-3.2874,-3.2906,-3.2923,-3.297,-3.2981,-3.3008,-3.3052,-3.307,-3.3124,-3.3132,-3.3192,-3.3191,-3.318,-3.318,-3.3212,-3.3208,-3.3313,-3.3327,-3.3247,-3.3248,-3.3248,0,-3.2717,-3.2753,-3.2796,-3.2821,-3.2842,-3.2883,-3.2909,-3.2926,-3.2953,-3.2996,-3.3023,-3.3067,-3.3103,-3.3174,-3.3197,-3.3239,-3.3239,-3.3273,-3.3245,-3.324,-3.3238,-3.3235,-3.3238,-3.3277,-3.3278,-3.3279,-3.3279,0,-3.279,-3.2798,-3.2836,-3.2879,-3.291,-3.2944,-3.2977,-3.2998,-3.3019,-3.305,-3.3096,-3.3124,-3.3179,-3.3223,-3.3266,-3.3287,-3.3286,-3.3288,-3.3298,-3.3294,-3.3285,-3.3289,-3.3192,-3.3285,-3.3284,-3.3284,-3.3284,-3.3283,-3.2838,-3.287,-3.2906,-3.2948,-3.2975,-3.3006,-3.3039,-3.306,-3.3098,-3.3145,-3.3153,-3.3201,-3.3236,-3.3294,-3.3316,-3.3354,-3.3345,-3.3359,-3.3363,-3.3366,-3.3367,-3.3281,-3.3362,-3.3362,-3.3362,-3.3362,-3.3362,0,-3.291,-3.2933,-3.2972,-3.3019,-3.3053,-3.3051,-3.3088,-3.3116,-3.3159,-3.3191,-3.3227,-3.328,-3.3322,-3.335,-3.3393,-3.3418,-3.3419,-3.3429,-3.3427,-3.3431,-3.3373,-3.336,-3.3428,-3.3428,-3.3428,-3.3428,-3.3428,-3.3428,-3.2951,-3.3004,-3.3017,-3.3084,-3.3107,-3.3155,-3.3176,-3.3205,-3.3231,-3.3289,-3.3325,-3.3343,-3.3374,-3.342,-3.3459,-3.3466,-3.3481,-3.3492,-3.3498,-3.3442,-3.3435,-3.3429,-3.3416,-3.3495,-3.3495,-3.3553,-3.3553,-3.3554]},{"header":{"parameterUnit":"m.s-1","parameterCategory":1,"la1":30.2991,"la2":30.254,"lo1":-89.0895,"lo2":-89.0444,"dy":0.0017,"dx":0.0017,"nx":28,"ny":28,"refTime":"2024-05-29T03:00:00:Z","depth":0,"parameterNumber":3,"parameterNumberName":"V-component_of_WINDS"},"data":[0,0,0,0,0,0,0,0,0,0,0,0,0,0,0,0,0,0,0,0,0,0,0,0,0,0,0,0,0,0,0,0,0,0,0,0,0,0,0,0,0,0,0,0,0,0,0,0,0,0,0,0,0,0,0,0,0,0,3.7435,3.7436,0,3.7469,3.7469,3.7469,3.7461,3.7461,3.746,3.7459,3.749,3.7491,3.7493,0,0,0,0,0,0,0,0,0,0,0,0,0,3.7362,3.7364,3.7435,3.7436,3.7436,3.7469,3.7469,3.7469,3.7461,3.7461,3.746,3.7459,3.749,3.7491,3.7493,0,0,0,0,0,0,0,0,0,0,0,0,0,3.7394,3.7364,3.7435,3.7436,3.7437,3.7468,3.7469,3.747,3.7461,3.7461,3.746,3.7459,3.7489,3.7491,3.7493,3.7525,0,0,3.75,3.75,0,0,0,0,0,0,0,0,3.7393,3.7397,3.7436,3.7436,3.7437,3.746,3.7454,3.7488,3.7462,3.7452,3.7459,3.7458,3.748,3.7483,3.7491,3.7527,3.7528,3.75,3.7501,3.7502,3.7503,0,0,0,0,0,0,0,3.739,3.7396,3.7448,3.7436,3.7437,3.7434,3.7438,3.7461,3.7471,3.7453,3.7452,3.7456,3.7481,3.7489,3.7492,3.7528,3.75,3.7502,3.7503,3.7504,3.7592,3.7593,0,0,0,0,0,0,3.7388,3.7394,3.7447,3.7449,3.7412,3.7436,3.744,3.7453,3.7471,3.7473,3.7457,3.7456,3.7486,3.749,3.7493,3.7532,3.7502,3.7504,3.7505,3.7591,3.7592,3.7593,0,0,0,0,0,0,3.7387,3.7393,3.7446,3.7422,3.7428,3.7438,3.7453,3.7454,3.7463,3.7474,3.7476,3.7465,3.7486,3.749,3.7518,3.7533,3.7505,3.7507,3.759,3.7591,3.7593,3.761,0,0,0,0,0,0,3.7385,3.7393,3.7405,3.7422,3.7429,3.7471,3.7454,3.7456,3.7467,3.7466,3.7481,3.7483,3.7485,3.7515,3.752,3.7535,3.7508,3.7588,3.759,3.7592,3.7608,3.7612,3.7615,0,0,0,0,0,3.7382,3.7408,3.7406,3.7412,3.7446,3.7472,3.7476,3.7479,3.7469,3.7481,3.7488,3.7483,3.7531,3.7517,3.7523,3.754,3.7587,3.759,3.7592,3.7606,3.7611,3.7615,0,0,0,0,0,0,3.7391,3.741,3.7408,3.744,3.7455,3.747,3.7486,3.7484,3.75,3.7498,3.75,3.7503,3.7532,3.7538,3.7523,3.7572,3.7557,3.7561,3.7566,3.7571,3.7575,3.7572,3.751,0,0,0,0,0,3.7397,3.7418,3.7433,3.7459,3.7467,3.7475,3.7487,3.7488,3.7502,3.7508,3.7517,3.753,3.7548,3.756,3.7577,3.7609,3.7613,3.7624,3.7627,3.763,3.7633,3.7651,3.7656,3.7601,3.7601,3.7601,0,0,3.7409,3.7422,3.7434,3.7462,3.7473,3.7493,3.748,3.7502,3.7517,3.7511,3.7538,3.7545,3.756,3.759,3.7604,3.7596,3.7649,3.7633,3.7636,3.7637,3.7654,3.7659,3.7664,3.7603,3.7603,3.7603,0,0,3.7442,3.7454,3.7478,3.749,3.7508,3.7513,3.7519,3.7536,3.7541,3.7568,3.7564,3.7581,3.7612,3.7624,3.7633,3.7672,3.7667,3.7677,3.7696,3.7713,3.7717,3.7721,3.7735,3.774,3.768,3.768,3.768,0,3.7454,3.7485,3.749,3.7513,3.7525,3.7522,3.7546,3.7557,3.7579,3.7587,3.7579,3.7619,3.7629,3.7662,3.7671,3.7679,3.7686,3.7675,3.7717,3.772,3.7724,3.7737,3.7742,3.7681,3.7681,3.7681,3.7681,0,3.75,3.7522,3.7539,3.7562,3.7576,3.7599,3.7607,3.762,3.7621,3.7627,3.7655,3.7667,3.7687,3.7695,3.7695,3.7728,3.7723,3.7716,3.7701,3.773,3.7742,3.7747,3.7683,3.7682,3.7682,3.7682,0,0,3.7537,3.7564,3.757,3.7581,3.7601,3.7618,3.7641,3.7662,3.7674,3.7689,3.7708,3.7736,3.7729,3.774,3.7742,3.7757,3.7787,3.7748,3.7748,3.7754,3.7824,3.7829,3.7835,3.7784,3.7785,3.7786,3.7823,0,3.7571,3.7614,3.7619,3.7656,3.7676,3.7675,3.7695,3.7709,3.7716,3.7734,3.7741,3.776,3.7751,3.7757,3.7772,3.778,3.7801,3.7777,3.7801,3.7802,3.7797,3.7841,3.7846,3.788,3.7827,3.7828,3.7829,0,3.7616,3.7635,3.7675,3.7693,3.7702,3.772,3.774,3.7757,3.7773,3.7777,3.779,3.779,3.7814,3.7799,3.7831,3.7815,3.7825,3.783,3.7832,3.7833,3.7817,3.7843,3.7891,3.7896,3.7836,3.7836,3.7835,0,3.764,3.7675,3.7703,3.7713,3.7735,3.7748,3.7757,3.7772,3.7785,3.7802,3.781,3.783,3.784,3.7855,3.786,3.7848,3.7891,3.7877,3.7895,3.7895,3.7903,3.7902,3.7952,3.791,3.791,3.791,3.791,0,3.7677,3.7701,3.7714,3.7732,3.7759,3.7765,3.7791,3.78,3.7814,3.7832,3.7832,3.7849,3.7854,3.7872,3.7876,3.7902,3.7907,3.791,3.7911,3.791,3.7909,3.7916,3.7914,3.7912,3.7911,3.7911,3.7911,0,3.7707,3.7717,3.7748,3.7767,3.7773,3.7792,3.7808,3.7824,3.7831,3.7855,3.7861,3.7872,3.7893,3.79,3.7925,3.7927,3.7958,3.7956,3.7953,3.7952,3.797,3.7968,3.8025,3.8033,3.7986,3.7987,3.7987,0,3.773,3.7749,3.7771,3.7784,3.7795,3.7816,3.7829,3.7836,3.785,3.787,3.7884,3.7905,3.7923,3.7957,3.7966,3.7986,3.7985,3.8003,3.7987,3.7986,3.7985,3.7983,3.7985,3.8006,3.8007,3.8007,3.8007,0,3.777,3.7774,3.7794,3.7817,3.7833,3.785,3.7867,3.7877,3.7886,3.7902,3.7924,3.7938,3.7965,3.7986,3.8006,3.8014,3.8012,3.8013,3.8018,3.8017,3.8014,3.8015,3.796,3.8011,3.8011,3.801,3.801,3.801,3.7797,3.7814,3.7833,3.7855,3.7869,3.7885,3.7901,3.7912,3.7931,3.7954,3.7957,3.7981,3.7997,3.8024,3.8034,3.8052,3.8047,3.8054,3.8056,3.8057,3.8059,3.8011,3.8056,3.8056,3.8056,3.8056,3.8056,0,3.7837,3.7849,3.787,3.7894,3.7912,3.791,3.7928,3.7943,3.7965,3.798,3.7998,3.8024,3.8045,3.8057,3.8078,3.809,3.809,3.8095,3.8094,3.8096,3.8063,3.8056,3.8095,3.8095,3.8095,3.8095,3.8095,3.8095,3.7859,3.7888,3.7895,3.793,3.7942,3.7967,3.7978,3.7992,3.8005,3.8035,3.8053,3.8061,3.8075,3.8097,3.8115,3.8118,3.8126,3.8132,3.8134,3.8102,3.8098,3.8094,3.8088,3.8134,3.8134,3.8166,3.8166,3.8167]}]]